TOPSWRTT 000
TTAA00 KICT 221703

Wichita AWIPS Roundup
National Weather Service Wichita KS
1100 AM CST MON DEC 22 2014

....Central Kansas....
  
CITY           SKY/WX    TMP DP  RH WIND       PRES   REMARKS
RUSSELL        PTSUNNY   46  37  71 NW22      29.60R                  
SALINA         CLOUDY    45  39  79 NW15      29.58R WCI  38          
GREAT BEND     PTSUNNY   45  36  70 NW18G25   29.63S WCI  37          
ELLSWORTH      CLOUDY    46  43  87 NW10      29.58F                  
MCPHERSON      MOSUNNY   48  43  81 NW18G24   29.58R                  
HAYS           MOSUNNY   46  30  53 NW20G26   29.63S                  

....South Central Kansas....
  
CITY           SKY/WX    TMP DP  RH WIND       PRES   REMARKS
HUTCHINSON     PTSUNNY   49  41  74 NW16G23   29.58S                  
NEWTON         PTSUNNY   46  39  76 NW17      29.58S                  
KINGMAN        SUNNY     48  45  87 NW16G23   29.59F                  
WICHITA (ICT)  CLOUDY    49  44  83 NW12      29.57F                  
JABARA ARPT    CLOUDY    47  44  90 W9        29.57S                  
MCCONNELL AFB  NOT AVBL                                               
EL DORADO      CLOUDY    46  45  93 SW7       29.56F FOG              
HARPER           N/A     48  38  68 NW14      29.64R                  
WELLINGTON     CLOUDY    48  46  93 W7        29.59F FOG              
WINFIELD       CLOUDY    48  47  96 W9        29.58F FOG              
 
....Southeast Kansas....
  
CITY           SKY/WX    TMP DP  RH WIND       PRES   REMARKS
EUREKA         RAIN      46  45  93 SW7       29.56S                  
CHANUTE        LGT RAIN  47  46  97 S9        29.57F FOG              
PARSONS        CLOUDY    48  47  96 S8        29.58F FOG              
COFFEYVILLE    CLOUDY    48  47  96 S9        29.57F FOG              
INDEPENDENCE   NOT AVBL                                               
FORT SCOTT     LGT RAIN  48  46  93 S8        29.56F                  
PITTSBURG      CLOUDY    48  49 100 S7        29.56F FOG              

....Western Kansas....
  
CITY           SKY/WX    TMP DP  RH WIND       PRES   REMARKS
GOODLAND       MOSUNNY   43  28  55 NW24G31   29.70S WCI  33          
HILL CITY      PTSUNNY   46  31  55 NW18G28   29.63F                  
LIBERAL        MOSUNNY   48  32  53 NW23G36   29.75S                  
GARDEN CITY    MOSUNNY   45  29  53 NW25G37   29.70S WCI  36          
DODGE CITY     PTSUNNY   48  30  49 NW18G30   29.69R                  
PRATT          NOT AVBL                                               
MEDICINE LODGE   N/A     50  38  63 N20G31    29.60F                  

....Northeast Kansas....
  
CITY           SKY/WX    TMP DP  RH WIND       PRES   REMARKS
CONCORDIA      CLOUDY    43  40  89 NW13      29.54S WCI  36          
TOPEKA         LGT RAIN  47  45  93 S12       29.53F                  
MANHATTAN      LGT RAIN  47  45  93 W7        29.52F                  
LAWRENCE       CLOUDY    45  43  93 S10       29.54F FOG     WCI  40  
OLATHE         CLOUDY    43  42  97 S7        29.54F FOG     WCI  39  
EMPORIA        CLOUDY    44  44 100 S9        29.54F WCI  39          

....Oklahoma....
  
CITY           SKY/WX    TMP DP  RH WIND       PRES   REMARKS
GAGE           SUNNY     49  31  49 NW23G38   29.69R                  
PONCA CITY     CLOUDY    50  47  89 W6        29.58F FOG              
BARTLESVILLE   CLOUDY    48  47  96 SW5       29.59F FOG              
TULSA          CLOUDY    50  48  93 S5        29.59F                  
OKLAHOMA CITY  CLOUDY    52  42  69 NW17G25   29.62S                  

Note: "fair" indicates few or no clouds below 12,000 feet with no
significant weather and/or obstructions to visibility.

USA.gov is the U.S. government's official web portal to all federal, state and local government web resources and services.